Location: Unspecified
(35.6961°N, 0.0000°E)
Time: 18:23:38
(UTC+00:00)

Altair - All Passes

Search period start: 19 May 2019 00:00
Search period end: 29 May 2019 00:00
Orbit: 1501 x 1683 km, 47.2° (Epoch: 19 May)

Date Brightness Start Highest point End Pass type
(mag) Time Alt. Az. Time Alt. Az. Time Alt. Az.
19 May - 02:54:03 10° S 03:02:49 35° SE 03:11:38 10° ENE visible
19 May - 04:56:53 10° WSW 05:07:05 82° NNW 05:17:16 10° NE daylight
19 May - 07:03:28 10° W 07:13:07 45° N 07:22:37 10° ENE daylight
19 May - 09:10:14 10° WNW 09:19:55 49° NNE 09:29:17 10° E daylight
19 May - 11:15:33 10° WNW 11:25:33 84° SW 11:35:06 10° SE daylight
19 May - 13:21:54 10° WNW 13:29:16 25° SW 13:36:26 10° S daylight
20 May - 02:29:15 10° S 02:37:43 32° SE 02:46:14 10° ENE visible
20 May - 04:31:39 10° SW 04:41:51 86° NW 04:52:03 10° NE daylight
20 May - 06:38:04 10° W 06:47:46 47° NNW 06:57:20 10° ENE daylight
20 May - 08:44:55 10° WNW 08:54:36 47° NNE 09:03:58 10° E daylight
20 May - 10:50:19 10° NW 11:00:21 90° SW 11:09:58 10° SE daylight
20 May - 12:56:25 10° WNW 13:04:13 28° SW 13:11:47 10° S daylight
21 May - 02:04:30 10° S 02:12:37 29° SE 02:20:48 10° ENE visible
21 May - 04:06:28 10° SW 04:16:37 89° SE 04:26:50 10° NE visible
21 May - 06:12:41 10° W 06:22:26 48° NNW 06:32:04 10° ENE daylight
21 May - 08:19:37 10° WNW 08:29:16 46° NNE 08:38:37 10° E daylight
21 May - 10:25:05 10° NW 10:35:09 86° NE 10:44:48 10° SE daylight
21 May - 12:30:58 10° WNW 12:39:09 31° SW 12:47:05 10° S daylight
22 May - 01:39:48 10° S 01:47:32 26° SE 01:55:19 10° ENE visible
22 May - 03:41:17 10° SW 03:51:25 84° SE 04:01:37 10° ENE visible
22 May - 05:47:18 10° W 05:57:06 49° NNW 06:06:48 10° ENE daylight
22 May - 07:54:17 10° WNW 08:03:55 45° N 08:13:17 10° E daylight
22 May - 09:59:50 10° NW 10:09:57 81° NNE 10:19:38 10° ESE daylight
22 May - 12:05:34 10° WNW 12:14:05 34° SW 12:22:19 10° S daylight
23 May - 01:15:12 10° S 01:22:27 23° SE 01:29:47 10° ENE visible
23 May - 03:16:08 10° SW 03:26:13 79° SE 03:36:23 10° ENE visible
23 May - 05:21:56 10° W 05:31:46 51° NNW 05:41:32 10° ENE daylight
23 May - 07:28:58 10° WNW 07:38:34 44° N 07:47:57 10° ENE daylight
23 May - 09:34:36 10° NW 09:44:43 76° NNE 09:54:26 10° ESE daylight
23 May - 11:40:11 10° WNW 11:48:59 38° SW 11:57:30 10° SSE daylight
24 May - 00:50:40 10° SSE 00:57:23 21° SE 01:04:10 10° E visible
24 May - 02:51:01 10° SW 03:01:01 74° SE 03:11:09 10° ENE visible
24 May - 04:56:34 10° W 05:06:26 53° NNW 05:16:18 10° ENE daylight
24 May - 07:03:37 10° WNW 07:13:13 44° N 07:22:37 10° ENE daylight
24 May - 09:09:22 10° NW 09:19:29 72° NNE 09:29:12 10° ESE daylight
24 May - 11:14:50 10° WNW 11:23:54 42° SW 11:32:40 10° SSE daylight
25 May - 00:26:15 10° SSE 00:32:19 18° ESE 00:38:27 10° E visible
25 May - 02:25:55 10° SW 02:35:50 68° SE 02:45:55 10° ENE visible
25 May - 04:31:13 10° W 04:41:07 55° NNW 04:51:03 10° ENE daylight
25 May - 06:38:16 10° WNW 06:47:52 43° N 06:57:16 10° ENE daylight
25 May - 08:44:07 10° NW 08:54:14 69° NNE 09:03:58 10° ESE daylight
25 May - 10:49:30 10° WNW 10:58:48 46° SW 11:07:46 10° SSE daylight
26 May - 00:01:58 10° SSE 00:07:16 16° ESE 00:12:36 10° E visible
26 May - 02:00:51 10° SW 02:10:40 63° SE 02:20:39 10° ENE visible
26 May - 04:05:52 10° W 04:15:49 58° NNW 04:25:49 10° NE visible
26 May - 06:12:55 10° WNW 06:22:30 43° N 06:31:55 10° ENE daylight
26 May - 08:18:52 10° NW 08:28:58 65° NNE 08:38:43 10° ESE daylight
26 May - 10:24:11 10° WNW 10:33:41 50° SW 10:42:50 10° SSE daylight
26 May - 23:37:56 10° SSE 23:42:13 14° ESE 23:46:32 10° E visible
27 May - 01:35:48 10° SSW 01:45:30 59° SE 01:55:23 10° ENE visible
27 May - 03:40:33 10° WSW 03:50:31 60° NNW 04:00:34 10° NE visible
27 May - 05:47:34 10° WNW 05:57:08 43° N 06:06:36 10° ENE daylight
27 May - 07:53:38 10° NW 08:03:41 62° NNE 08:13:27 10° ESE daylight
27 May - 09:58:53 10° WNW 10:08:33 55° SW 10:17:53 10° SSE daylight
27 May - 12:08:48 10° WSW 12:11:40 12° WSW 12:14:32 10° SW daylight
27 May - 23:14:22 10° SE 23:17:11 11° ESE 23:20:01 10° ESE visible
28 May - 01:10:48 10° SSW 01:20:21 54° SE 01:30:06 10° ENE visible
28 May - 03:15:14 10° WSW 03:25:14 63° NNW 03:35:20 10° NE visible
28 May - 05:22:13 10° WNW 05:31:46 43° N 05:41:15 10° ENE daylight
28 May - 07:28:23 10° NW 07:38:24 59° NNE 07:48:09 10° ESE daylight
28 May - 09:33:37 10° WNW 09:43:25 60° SW 09:52:53 10° SSE daylight
28 May - 11:42:19 10° W 11:46:39 14° WSW 11:50:55 10° SSW daylight
